Weather History for KLNS - June, 2014

Change the Weather History Date:

Friday, June 20, 2014

  Actual Average Record
Temperature  
Mean Temperature 66 °F -  
Max Temperature 80 °F 82 °F 93 °F (2012)
Min Temperature 53 °F 60 °F 45 °F (1986)
Cooling Degree Days 1    
Growing Degree Days 16 (Base 50)    
Moisture  
Dew Point 49 °F    
Average Humidity 54    
Maximum Humidity 90    
Minimum Humidity 30    
Precipitation  
Precipitation 0.00 in - - ()
Sea Level Pressure  
Sea Level Pressure 30.01 in    
Wind  
Wind Speed 5 mph (NNW)    
Max Wind Speed 10 mph    
Max Gust Speed -    
Visibility 10 miles    
Events      
Averages and records for this station are not official NWS values.
T = Trace of Precipitation, MM = Missing Value Source: NWS Daily Summary

Daily Weather History Graph

Daily Weather History Graph

Search for Another Location

Airport or City:

Trip Planner

Search our weather history database for the weather conditions in past years. The results will help you decide how hot, cold, wet, or windy it might be!

Date:

Astronomy

Jun. 20, 2014 Rise Set
Actual Time 5:35 AM EDT 8:37 PM EDT
Civil Twilight 5:02 AM EDT 9:10 PM EDT
Nautical Twilight 4:21 AM EDT 9:52 PM EDT
Astronomical Twilight 3:32 AM EDT 10:41 PM EDT
Moon 1:13 AM EDT (6/20) 2:09 PM EDT (6/20)
Length of Visible Light 16h 07m
Length of Day
15h 01m
Last Quarter, 40% of the Moon is Illuminated
Jun 20
Last Quarter
Jun 27
New
Jul 5
First Quarter
Jul 12
Full
Jul 18
Last Quarter

Hourly Weather History & Observations

Time (EDT) Temp. Dew Point Humidity Pressure Visibility Wind Dir Wind Speed Gust Speed Precip Events Conditions
12:53 AM 64.9 °F 62.1 °F 90% 30.04 in 8.0 mi NNW 5.8 mph - N/A   Clear
1:53 AM 63.0 °F 55.0 °F 75% 30.05 in 10.0 mi Variable 3.5 mph - N/A   Clear
2:53 AM 61.0 °F 55.0 °F 81% 30.05 in 10.0 mi NW 3.5 mph - N/A   Clear
3:53 AM 57.0 °F 50.0 °F 77% 30.04 in 10.0 mi NNE 6.9 mph - N/A   Clear
4:53 AM 55.9 °F 48.0 °F 75% 30.04 in 10.0 mi Calm Calm - N/A   Clear
5:53 AM 53.1 °F 46.9 °F 80% 30.05 in 10.0 mi West 4.6 mph - N/A   Clear
6:53 AM 57.0 °F 48.0 °F 72% 30.06 in 10.0 mi NW 4.6 mph - N/A   Clear
7:53 AM 63.0 °F 46.0 °F 54% 30.06 in 10.0 mi North 9.2 mph - N/A   Clear
8:53 AM 66.9 °F 48.9 °F 52% 30.06 in 10.0 mi Variable 3.5 mph - N/A   Clear
9:53 AM 68.0 °F 48.9 °F 50% 30.06 in 10.0 mi North 6.9 mph - N/A   Clear
10:53 AM 70.0 °F 48.0 °F 46% 30.06 in 10.0 mi NNW 5.8 mph - N/A   Clear
11:53 AM 72.0 °F 50.0 °F 46% 30.05 in 10.0 mi Variable 4.6 mph - N/A   Clear
12:53 PM 73.9 °F 48.0 °F 40% 30.03 in 10.0 mi NW 9.2 mph - N/A   Clear
1:53 PM 75.0 °F 46.9 °F 37% 30.01 in 10.0 mi Variable 5.8 mph - N/A   Clear
2:53 PM 77.0 °F 45.0 °F 32% 29.99 in 10.0 mi West 8.1 mph - N/A   Clear
3:53 PM 78.1 °F 45.0 °F 31% 29.98 in 10.0 mi NW 10.4 mph - N/A   Clear
4:53 PM 79.0 °F 45.0 °F 30% 29.96 in 10.0 mi NW 8.1 mph - N/A   Clear
5:53 PM 78.1 °F 45.0 °F 31% 29.95 in 10.0 mi North 9.2 mph - N/A   Clear
6:53 PM 77.0 °F 45.0 °F 32% 29.94 in 10.0 mi NNW 8.1 mph - N/A   Clear
7:26 PM 75.0 °F 48.9 °F 40% 29.96 in 10.0 mi NW 8.1 mph - N/A   Partly Cloudy
7:53 PM 73.0 °F 48.9 °F 42% 29.95 in 10.0 mi NNW 5.8 mph - N/A   Clear
8:53 PM 71.1 °F 48.9 °F 45% 29.95 in 10.0 mi NNW 3.5 mph - N/A   Clear
9:53 PM 70.0 °F 50.0 °F 49% 29.96 in 10.0 mi Calm Calm - N/A   Clear
10:53 PM 66.9 °F 55.9 °F 68% 29.94 in 10.0 mi Calm Calm - N/A   Clear
11:53 PM 66.0 °F 55.9 °F 70% 29.94 in 10.0 mi ENE 8.1 mph - N/A   Clear